CZ-6A DEB

Satellite information

Favourite Embed

Satellite Type and Status

DEBRISIN ORBIT

Key statistics

Satellite CZ-6A DEB at a glance.

Uptime

395

Days in orbit

Revolutions

≈ 14.4

Per day

Orbit

LEO

Low Earth Orbit

Inclination

88.9

Latest

Satellite identification and parameters

Extended collection of information and parameters for CZ-6A DEB.

Object identification

Identified? True

Debris? True

Object name: CZ-6A DEB

International designator: 2024-140MF

Object number (NORAD): 60980

Object ID (CCSDS): 60980

Country: PEOPLES REPUBLIC OF CHINA (PRC)

Current information (Y/N): Y

RCS size: SMALL

Orbital parameters

Period: 100.152 minutes

Inclination: 88.9495 deg

SMA: 7143.864 km

Apoapsis: 774.778 km

Periapsis: 756.68 km

RAAN: 303.3719 deg

Eccentricy: 0.00126674

Argument of periapsis: 176.5769 deg

Mean anomaly: 183.552 deg

Mean motion: 14.37814932 rev/day

Mean motion (dot): 0.00005801 rev/day2

B* drag term: 0.0019191543 1/REarth

Two-line elements (TLE)

Creation date: Sept. 4, 2025, 10:13 a.m.

Reference frame: TEME

Reference center: EARTH

Epoch: Sept. 4, 2025, 4:17 a.m. UTC

TLE line 0: 0 CZ-6A DEB

TLE line 1: 1 60980U 24140MF 25247.17853097 .00005801 00000-0 19192-2 0 9992

TLE line 2: 2 60980 88.9495 303.3719 0012667 176.5769 183.5520 14.37814932 54754

Live tracking on map

Real-time ground track for satellite CZ-6A DEB.

In-orbit conjunctions

A list of the most updated potential collisions computed for object CZ-6A DEB.

Target Orbit TCA Probability of collision Miss distance Type
FENGYUN 1C DEB SSO 2025-03-02 02:45:39 0.0001051881 263.0 (m) DEBRIS
FENGYUN 1C DEB SSO 2025-02-24 06:19:07 0.009119672 32.0 (m) DEBRIS
COSMOS 2251 DEB LEO 2025-02-06 22:47:52 0.0002270039 804.0 (m) DEBRIS
NOAA 16 DEB SSO 2025-02-02 09:36:55 0.0001593359 911.0 (m) DEBRIS
NOAA 16 DEB SSO 2025-01-06 02:43:32 0.0001151978 715.0 (m) DEBRIS

Associated space launch

18 Low Earth Orbit communication satellites with Ku, Q and V band payloads for the G60 constellation operated by Shanghai Spacecom Satellite Technology (SSST) with funding backed by the Shanghai local government. Initial constellation will consist of 1296 satellites by 2027 with long term plans to expand it to 12000 satellites.

CZ-6A DEB was lifted into orbit during the mission ‘Long March 6A | G60 Polar Group 01’, on board a Long March 6A space rocket.

The launch took place on Aug. 6, 2024, 6:42 a.m. from Launch Complex 9A.

For more information about the launch, click the button.

Launch to space Long March 6A | G60 Polar Group 01
Long March 6A | G60 Polar Group 01

Agency: N/A

Status: Launch Successful

Launch date: Aug. 6, 2024, 6:42 a.m. UTC

Rocket: Long March 6A

Launch pad: Launch Complex 9A

Location: Taiyuan Satellite Launch Center, People's Republic of China

...

Latest news about this satellite

News about space launch
Brightness of first Chinese broadband constellation satellites alarms astronomers

The first satellites of a Chinese broadband constellation are significantly brighter than those of Western systems, posing a new challenge for astronomers.

News about space launch
Chinese rocket stage breaks up into cloud of more than 700 pieces of space debris

HELSINKI — A Chinese Long March 6A rocket’s upper stage has fragmented into a cloud of over 700 pieces of space debris, adding to concerns about long-term orbital safety. China […]

News about space launch
China's Thousand Sails Megaconstellation Kicks Off with Dangerous Debris Field

China's Thousand Sails Megaconstellation Kicks Off with Dangerous Debris Field


Newsletter sign-up

Weekly statistics, charts and insights to help you stay on top of the space industry.